Location: Hanover
(52.3667°N, 9.7167°E)
Time: 03:27:27
(UTC+02:00)

ARIANE 6 FM1 Upper Stage - Pass Details

Date: 21 September 2024
Orbit: 564 x 594 km, 62.0° (Epoch: 06 October)

Event Time Altitude Azimuth Distance (km) Brightness Sun altitude
Rises 20:19:29 0° 184° (S) 2,773 6.1 -9.7°
Reaches altitude 10° 20:22:08 10° 168° (SSE) 1,887 5.1 -10.1°
Maximum altitude 20:25:17 20° 120° (ESE) 1,357 4.0 -10.5°
Enters shadow 20:27:49 13° 79° (E) 1,733 4.6 -10.9°
